This demonstration page uses our WeatherBlox Daily Observations layout. Learn more.

Left ArrowRight Arrow

Hourly Observations for May 15, 2017

Temp ( °F °C ) Dew Point ( °F °C ) Humidity (%) Winds ( mph kmh ) Pressure ( in mb ) Visibility ( mi km ) Precip ( " mm )
12:54 am 00:54 Clear 63 17.2 57 13.9 81 81 S 5 7 29.74 1007 10 16.0934 0 0
1:54 am 01:54 Clear 66 18.9 57 13.9 73 73 Calm 29.73 1007 10 16.0934 0 0
2:54 am 02:54 Clear 61 16.1 56 13.3 84 84 Calm 29.74 1007 10 16.0934 0 0
3:54 am 03:54 Clear 60 15.6 56 13.3 86 86 Calm 29.75 1007 10 16.0934 0 0
4:54 am 04:54 Clear 60 15.6 55 12.8 84 84 Calm 29.74 1007 10 16.0934 0 0
5:54 am 05:54 Clear 61 16.1 56 13.3 84 84 Calm 29.74 1007 10 16.0934 0 0
6:54 am 06:54 Sunny 63 17.2 57 13.9 81 81 Calm 29.74 1007 10 16.0934 0 0
7:54 am 07:54 Sunny 67 19.4 62 16.7 84 84 Calm 29.75 1007 10 16.0934 0 0
8:54 am 08:54 Sunny 73 22.8 64 17.8 74 74 S 13 20 29.74 1007 10 16.0934 0 0
9:54 am 09:54 Sunny 76 24.4 63 17.2 64 64 S 13 20 29.73 1007 10 16.0934 0 0
10:54 am 10:54 Sunny 82 27.8 64 17.8 55 55 S 12 19 29.72 1006 10 16.0934 0 0
11:54 am 11:54 Sunny 85 29.4 64 17.8 50 50 S 15 24 29.71 1006 10 16.0934 0 0
12:54 pm 12:54 Sunny 89 31.7 59 15 36 36 SSW 17 28 29.7 1006 10 16.0934 0 0
1:54 pm 13:54 Sunny 89 31.7 59 15 36 36 SSW 14 22 29.69 1005 10 16.0934 0 0
2:54 pm 14:54 Sunny 88 31.1 59 15 38 38 SSW 16 26 29.68 1005 10 16.0934 0 0
3:54 pm 15:54 Mostly Sunny 88 31.1 62 16.7 42 42 S 16 26 29.64 1004 10 16.0934 0 0.0254
4:54 pm 16:54 Sunny 90 32.2 62 16.7 39 39 S 22 35 29.62 1003 10 16.0934 0 0
5:54 pm 17:54 Sunny 88 31.1 63 17.2 43 43 S 21 33 29.62 1003 10 16.0934 0 0
6:54 pm 18:54 Sunny 89 31.7 61 16.1 39 39 S 18 30 29.6 1002 10 16.0934 0 0
7:54 pm 19:54 Sunny 87 30.6 62 16.7 43 43 S 14 22 29.6 1002 10 16.0934 0 0
8:54 pm 20:54 Clear 85 29.4 62 16.7 46 46 SSW 13 20 29.61 1003 10 16.0934 0 0
9:54 pm 21:54 Clear 78 25.6 64 17.8 62 62 S 9 15 29.63 1003 10 16.0934 0 0
10:54 pm 22:54 Clear 80 26.7 65 18.3 60 60 SSW 10 17 29.66 1004 10 16.0934 0 0
11:19 pm 23:19 Mostly Cloudy 79 26.1 53 11.7 41 41 W 13 20 29.68 1005 10 16.0934 0 0
11:54 pm 23:54 Clear 76 24.4 53 11.7 45 45 S 5 7 29.67 1005 10 16.0934 0 0

Powered by AerisWeather